Volver al catálogo

METEOR 1-5 DEB

ActivoPO
NORAD 58397·DEBRIS·🇷🇺 Russia

Lanzado Jun 23, 1970 desde Plesetsk Cosmodrome

Loading…

Próximos Pases (próximas 24 horas)

TLE

ActualizadoSource: Space-Track

Época: Sep 14, 2026, 03:45 UTC

1 58397U 70047D   26257.15674797  .00000402  00000-0  19423-3 0  9996
2 58397  81.2176 148.4383 0029690 156.2287 204.0267 14.16621957149048

Sigue METEOR 1-5 DEB en tiempo real con AllMySat

Download on the App Store